Location: Siloam Springs
(36.1881°N, 94.5403°W)
Time: 07:01:56
(UTC-05:00)

Envisat - Pass Details

Date: 06 March 2024
Orbit: 762 x 764 km, 98.3° (Epoch: 22 April)

Event Time Altitude Azimuth Distance (km) Brightness Sun altitude
Rises 02:56:18 0° 24° (NNE) 3,233 6.8 -44.4°
Reaches altitude 10° 02:58:51 10° 35° (NE) 2,303 6.0 -44.0°
Enters shadow 02:58:52 10° 35° (NE) 2,300 6.0 -44.0°
